Weather reports worldwide

Advertisment
Luqa, Malta (16597): temperature & dewpoint: 29.06.2020 12:00:00 - 05.07.2020 12:00:00 (CEST)Luqa, Malta (16597): wind speed: 29.06.2020 12:00:00 - 05.07.2020 12:00:00 (CEST)Luqa, Malta (16597): wind direction: 29.06.2020 12:00:00 - 05.07.2020 12:00:00 (CEST)Luqa, Malta (16597): reduced air pressure: 29.06.2020 12:00:00 - 05.07.2020 12:00:00 (CEST)Luqa, Malta (16597): visibility: 29.06.2020 12:00:00 - 05.07.2020 12:00:00 (CEST)
Date & Time tt [°C] td [°C] ff [km/h] ff [kn] dd ppp [hPa] vv [km]
05.07.2020 12:00:00 28,0 16,0 18 10 NNW - 10
05.07.2020 11:00:00 27,3 16,9 16 9 NNW 1013,2 10
05.07.2020 10:00:00 27,0 18,0 16 9 N - 10
05.07.2020 09:00:00 26,0 18,0 22 12 N - 10
05.07.2020 08:00:00 24,5 18,6 26 14 NNW 1012,9 10
05.07.2020 07:00:00 23,0 19,0 21 11 NNW - 10
05.07.2020 06:00:00 22,0 18,0 16 9 NNW - 10
05.07.2020 05:00:00 22,1 18,0 16 9 NW 1012,1 10
05.07.2020 04:00:00 22,0 18,0 21 11 NW - 10
05.07.2020 03:00:00 22,0 18,0 26 14 NW - 10
05.07.2020 02:00:00 22,4 18,3 31 17 NW 1012,8 10
05.07.2020 01:00:00 22,0 19,0 34 18 NW - 10
05.07.2020 00:00:00 22,0 19,0 37 20 NW - 10
04.07.2020 23:00:00 22,7 18,9 42 23 NW 1012,9 10
04.07.2020 22:00:00 23,0 19,0 37 20 NW - 10
04.07.2020 21:00:00 23,0 19,0 41 22 NW - 10
04.07.2020 20:00:00 24,5 19,7 41 22 NW 1012,4 10
04.07.2020 19:00:00 26,0 20,0 35 19 NW - 10
04.07.2020 18:00:00 27,0 21,0 41 22 NW - 10
04.07.2020 17:00:00 28,6 20,0 34 18 WNW 1012,7 10
04.07.2020 16:00:00 29,0 21,0 29 16 NW - 10
04.07.2020 15:00:00 29,0 21,0 29 16 NW - 10
04.07.2020 14:00:00 30,4 20,1 29 16 NW 1013,7 10
04.07.2020 13:00:00 31,0 19,0 22 12 NW - 10
04.07.2020 12:00:00 30,0 20,0 22 12 NNW - 10
04.07.2020 11:00:00 29,7 21,2 21 11 NW 1013,9 10
04.07.2020 10:00:00 30,0 21,0 13 7 NNW - 10
04.07.2020 09:00:00 29,0 19,0 9 5 N - 10
04.07.2020 08:00:00 26,3 21,6 8 4 WNW 1012,8 10
04.07.2020 07:00:00 24,0 22,0 5 3 W - 10
04.07.2020 06:00:00 24,0 22,0 9 5 NNE - 10
04.07.2020 05:00:00 24,2 21,7 16 9 NNE 1011,7 10
04.07.2020 04:00:00 24,0 22,0 22 12 N - 10
04.07.2020 03:00:00 24,0 22,0 22 12 N - 10
04.07.2020 02:00:00 24,2 21,3 16 9 NNW 1011,7 10
04.07.2020 01:00:00 25,0 21,0 15 8 NNW - 10
04.07.2020 00:00:00 25,0 20,0 18 10 NW - 10
03.07.2020 23:00:00 24,5 20,2 16 9 WNW 1012,1 10
03.07.2020 22:00:00 25,0 20,0 11 6 NW - 10
03.07.2020 21:00:00 25,0 20,0 11 6 NW - 10
03.07.2020 20:00:00 27,1 20,7 13 7 NNW 1011,1 10
03.07.2020 19:00:00 28,0 21,0 15 8 NW - 10
03.07.2020 18:00:00 30,0 18,0 21 11 NNW - 10
03.07.2020 17:00:00 32,8 17,1 16 9 NW 1010,4 10
03.07.2020 16:00:00 33,0 17,0 15 8 NNW - 10
03.07.2020 15:00:00 33,0 18,0 16 9 NNW - 10
03.07.2020 14:00:00 33,3 18,0 24 13 NW 1010,9 10
03.07.2020 13:00:00 32,0 20,0 24 13 NNW - 10
03.07.2020 12:00:00 30,0 22,0 15 8 NNW - 10
03.07.2020 11:00:00 29,3 22,4 18 10 NW 1011,5 10
03.07.2020 10:00:00 29,0 22,0 21 11 NNW - 10
03.07.2020 09:00:00 27,0 22,0 22 12 NW - 10
03.07.2020 08:00:00 25,2 22,3 15 8 NW 1010,4 10
03.07.2020 07:00:00 24,0 22,0 18 10 NNW - 8
03.07.2020 06:00:00 23,0 22,0 21 11 NNW - 8
03.07.2020 05:00:00 22,8 21,7 24 13 NW 1009,9 8
03.07.2020 04:00:00 23,0 22,0 18 10 NW - 10
03.07.2020 03:00:00 23,0 21,0 16 9 NW - 10
03.07.2020 02:00:00 23,1 20,9 18 10 WNW 1010,5 10
03.07.2020 01:00:00 23,0 21,0 16 9 NW - 10
03.07.2020 00:00:00 24,0 21,0 16 9 NW - 10
02.07.2020 23:00:00 23,9 21,2 24 13 NW 1011,4 10
02.07.2020 22:00:00 25,0 19,0 24 13 WNW - 10
02.07.2020 21:00:00 25,0 20,0 24 13 NW - 10
02.07.2020 20:00:00 26,4 20,3 15 8 NW 1010,6 10
02.07.2020 19:00:00 28,0 19,0 26 14 NW - 10
02.07.2020 18:00:00 29,0 20,0 22 12 WNW - 10
02.07.2020 17:00:00 31,9 18,5 18 10 WNW 1010,7 10
02.07.2020 16:00:00 31,0 20,0 26 14 WNW - 10
02.07.2020 15:00:00 32,0 17,0 24 13 W - 10
02.07.2020 14:00:00 34,3 8,9 18 10 W 1011,5 10
02.07.2020 13:00:00 34,0 8,0 24 13 W - 10
02.07.2020 12:00:00 33,0 10,0 24 13 W - 10
02.07.2020 11:00:00 33,0 10,8 22 12 WNW 1012,1 10
02.07.2020 10:00:00 33,0 11,0 21 11 WNW - 10
02.07.2020 09:00:00 31,0 11,0 18 10 WNW - 10
02.07.2020 08:00:00 28,5 13,9 4 2 - 1011,9 10
02.07.2020 07:00:00 27,0 12,0 13 7 W - 10
02.07.2020 06:00:00 24,0 12,0 9 5 NW - 10
02.07.2020 05:00:00 24,2 12,2 9 5 WNW 1011,4 10
02.07.2020 04:00:00 26,0 12,0 9 5 W - 10
02.07.2020 03:00:00 25,0 13,0 8 4 WNW - 10
02.07.2020 02:00:00 24,7 12,8 8 4 WNW 1012,6 10
02.07.2020 01:00:00 25,0 13,0 9 5 W - 10
02.07.2020 00:00:00 25,0 15,0 8 4 W - 10
01.07.2020 23:00:00 25,3 16,3 5 3 W 1013,1 10
01.07.2020 22:00:00 26,0 16,0 8 4 W - 10
01.07.2020 21:00:00 27,0 15,0 5 3 WNW - 10
01.07.2020 20:00:00 29,4 15,1 11 6 NNW 1012,3 10
01.07.2020 19:00:00 30,0 20,0 11 6 N - 10
01.07.2020 18:00:00 32,0 16,0 11 6 NNW - 10
01.07.2020 17:00:00 31,1 21,8 11 6 ENE 1012,3 10
01.07.2020 16:00:00 32,0 22,0 13 7 NNE - 10
01.07.2020 15:00:00 32,0 20,0 15 8 SSE - 10
01.07.2020 14:00:00 31,0 22,2 8 4 - 1012,6 10
01.07.2020 13:00:00 30,0 22,0 13 7 SW - 10
01.07.2020 12:00:00 31,0 22,0 11 6 SW - 10
01.07.2020 11:00:00 28,7 20,9 11 6 WSW 1013,4 10
01.07.2020 10:00:00 29,0 21,0 15 8 SW - 10
01.07.2020 09:00:00 30,0 19,0 11 6 WSW - 10
01.07.2020 08:00:00 26,0 19,4 15 8 WNW 1013,4 10
01.07.2020 07:00:00 24,0 20,0 8 4 W - 10
01.07.2020 06:00:00 22,0 17,0 5 3 W - 10
01.07.2020 05:00:00 21,1 18,7 5 3 WNW 1012,6 10
01.07.2020 04:00:00 22,0 19,0 4 2 SW - 10
01.07.2020 03:00:00 22,0 20,0 11 6 WSW - 10
01.07.2020 02:00:00 21,7 18,8 8 4 WSW 1013,3 10
01.07.2020 01:00:00 23,0 19,0 8 4 WSW - 10
01.07.2020 00:00:00 23,0 20,0 5 3 SW - 10
30.06.2020 23:00:00 23,3 21,0 4 2 NW 1014,0 10
30.06.2020 22:00:00 23,0 21,0 11 6 NW - 10
30.06.2020 21:00:00 24,0 21,0 11 6 NNW - 10
30.06.2020 20:00:00 27,9 18,8 11 6 WNW 1012,9 10
30.06.2020 19:00:00 29,0 21,0 13 7 NW - 10
30.06.2020 18:00:00 30,0 23,0 5 3 - - 10
30.06.2020 17:00:00 30,8 23,1 13 7 NE 1012,6 10
30.06.2020 16:00:00 31,0 23,0 15 8 NNE - 10
30.06.2020 15:00:00 31,0 23,0 13 7 NE - 10
30.06.2020 14:00:00 31,5 22,2 15 8 NNE 1013,2 10
30.06.2020 13:00:00 31,0 22,0 11 6 ESE - 10
30.06.2020 12:00:00 31,0 22,0 16 9 SE - 10
30.06.2020 11:00:00 31,0 21,4 9 5 N 1013,8 10
30.06.2020 10:00:00 31,0 17,0 9 5 NW - 10
30.06.2020 09:00:00 29,0 22,0 4 2 - - 2,3
30.06.2020 08:00:00 25,0 21,8 9 5 NW 1013,6 10
30.06.2020 07:00:00 23,0 22,0 8 4 W - 10
30.06.2020 06:00:00 22,0 21,0 9 5 W - 7
30.06.2020 05:00:00 21,8 21,2 9 5 SW 1012,9 8
30.06.2020 04:00:00 22,0 21,0 2 1 - - 10
30.06.2020 03:00:00 22,0 21,0 8 4 SW - 10
30.06.2020 02:00:00 22,3 20,6 5 3 WSW 1013,4 10
30.06.2020 01:00:00 22,0 20,0 5 3 WSW - 10
30.06.2020 00:00:00 23,0 20,0 5 3 WSW - 10
29.06.2020 23:00:00 23,0 20,5 5 3 WSW 1014,2 10
29.06.2020 22:00:00 23,0 21,0 5 3 W - 10
29.06.2020 21:00:00 23,0 20,0 9 5 NNW - 10
29.06.2020 20:00:00 24,8 21,1 15 8 NNW 1013,4 10
29.06.2020 19:00:00 26,0 21,0 13 7 NNW - 10
29.06.2020 18:00:00 28,0 20,0 15 8 NW - 10
29.06.2020 17:00:00 28,5 19,2 11 6 NW 1013,5 10
29.06.2020 16:00:00 29,0 19,0 15 8 NNW - 10
29.06.2020 15:00:00 29,0 20,0 15 8 WNW - 10
29.06.2020 14:00:00 27,7 20,0 15 8 WSW 1014,3 10
29.06.2020 13:00:00 28,0 20,0 13 7 W - 10
29.06.2020 12:00:00 29,0 20,0 15 8 WSW - 10

tt = temperature
td = dewpoint
ff = wind speed
dd = wind direction
ppp = reduced air pressure
vv = visibility

Next stations